Temp
78 90 96 91 75 77 75 80 88 82 83 89 89 86 84 88 83 78 104 99 98 99 91 81 74 75 75 76 75 75 76 77 77 76 76 76 76 76 76 76 76 77 79 79 79 79 79 78 77
93 91 91 85 71 71 76 87 81 84 87 88 88 88 87 84 93 95 97 99 98 99 94 88 73 74 75 75 75 75 76 77 76 76 76 76 76 76 76 76 76 77 78 79 79 79 79 77 75
86 91 82 78 74 70 75 83 83 85 86 85 85 90 88 86 93 94 98 97 95 98 95 90 73 74 75 75 75 75 75 75 75 76 76 76 76 76 76 75 75 77 78 78 79 78 77 75 74
88 87 84 71 70 79 80 84 84 84 88 88 87 83 91 96 92 96 98 96 94 97 96 75 72 73 74 75 75 75 74 74 74 75 76 76 77 76 76 75 75 77 77 78 78 77 75 73 73
89 84 73 71 73 80 85 86 86 84 86 86 86 81 85 95 96 95 94 95 92 94 95 84 71 72 74 75 75 75 74 74 74 75 75 76 76 76 75 75 75 76 77 77 77 75 74 73 72
79 82 69 69 75 83 85 84 84 83 85 85 84 83 85 97 92 93 93 91 93 93 92 88 74 72 73 74 74 73 73 73 74 74 74 75 75 74 74 74 75 75 75 75 74 73 73 72 72
74 75 70 72 73 77 81 87 82 80 80 82 86 77 86 92 90 92 94 91 89 90 90 90 83 78 71 71 71 72 72 72 73 73 73 74 73 73 74 74 74 74 74 74 73 72 72 72 71
77 75 68 72 71 73 83 82 84 81 78 86 87 77 79 87 89 91 91 91 88 87 87 87 85 84 83 81 71 71 71 71 72 72 72 71 71 72 73 73 73 74 73 73 72 71 71 71 70
81 67 66 70 72 75 82 76 81 84 79 81 84 83 87 90 89 88 87 88 89 87 86 86 86 86 85 85 80 72 71 71 71 73 71 72 84 82 79 77 72 72 72 72 71 71 70 69 69
72 69 69 78 75 72 74 73 75 75 76 77 80 86 88 86 84 83 83 85 85 87 87 86 86 86 86 88 84 81 82 82 81 82 80 82 84 85 84 78 71 71 71 71 70 70 69 69 82
72 66 73 73 75 74 71 72 76 72 69 75 74 77 80 82 81 81 83 86 87 88 90 87 84 80 78 86 87 85 86 84 84 83 83 83 85 82 84 79 80 80 72 79 76 75 80 82 80
63 71 72 73 73 70 67 71 69 71 71 77 77 79 79 79 80 81 82 85 87 88 89 91 86 79 75 82 84 85 88 87 86 85 82 83 84 80 81 83 82 80 80 81 81 81 82 82 80
66 69 71 71 71 70 71 67 67 68 75 78 78 77 76 78 80 83 84 84 86 85 87 88 88 82 80 78 86 84 85 84 87 85 81 83 83 81 82 82 82 79 80 82 79 81 79 77 78
69 67 68 70 70 72 68 69 69 71 77 76 76 75 76 77 78 80 80 80 81 84 85 87 87 85 83 80 83 84 86 83 80 78 79 81 81 81 81 82 82 81 80 80 80 77 77 81 81
67 61 68 71 70 67 70 62 67 75 76 74 74 75 76 76 79 77 79 79 81 83 85 84 84 86 81 81 82 85 85 82 77 77 77 79 79 81 84 79 80 77 81 77 77 77 79 77 78
63 65 59 70 70 69 66 55 69 75 72 71 72 74 74 76 77 79 80 81 82 83 82 84 87 86 83 79 81 85 85 81 78 76 75 75 76 78 81 83 82 79 76 79 77 78 78 76 75
64 57 60 63 71 67 64 59 70 74 71 69 71 72 73 74 77 79 80 81 82 83 82 82 83 84 84 80 80 83 83 81 82 82 78 74 74 75 78 83 80 81 79 77 77 78 77 75 74
55 56 58 57 66 66 61 61 67 71 70 67 68 68 68 68 70 73 76 80 81 82 81 81 82 83 82 77 79 82 83 82 83 85 85 77 73 74 74 75 74 76 75 71 76 75 77 76 74
57 55 55 61 66 59 59 61 65 70 66 62 62 61 61 61 64 66 69 73 76 77 77 79 78 80 82 77 74 78 79 81 82 87 87 78 73 72 73 74 74 73 73 73 72 73 75 74 76
56 53 55 61 63 60 59 59 66 66 62 60 58 58 56 53 54 57 59 63 69 68 71 74 75 75 78 84 78 77 82 83 85 87 86 84 75 72 74 72 72 71 72 70 71 71 71 73 74
56 54 54 54 59 61 60 57 61 65 64 59 58 56 54 48 46 47 49 52 58 59 61 66 68 73 75 78 80 75 83 83 84 85 85 83 79 72 72 73 71 70 71 70 71 70 70 70 73
49 60 56 54 51 45 59 42 58 56 54 52 53 51 47 47 47 43 43 44 48 50 54 56 61 68 72 70 71 73 79 81 82 84 85 85 82 74 72 72 71 70 70 69 71 72 71 70 65
52 58 54 54 51 50 52 48 56 53 43 44 46 45 43 44 44 41 40 40 43 46 46 48 53 60 61 62 64 75 72 83 84 84 83 83 80 79 74 72 71 69 69 70 71 70 71 72 69
59 54 56 57 54 41 52 49 47 37 35 39 41 41 41 40 41 44 42 40 40 43 44 45 49 53 53 57 68 78 72 78 75 80 81 80 77 78 78 75 72 71 70 69 70 70 70 70 70
56 52 41 40 38 39 53 48 36 44 43 40 37 37 40 40 38 39 36 35 36 39 41 43 47 49 50 53 56 57 70 71 75 66 71 70 68 71 76 77 74 71 70 70 70 69 68 70 67
52 52 41 29 34 39 51 40 33 47 47 44 43 37 40 38 37 34 32 34 34 37 38 42 44 45 47 50 52 54 55 60 62 59 60 66 69 69 72 73 73 72 71 70 69 69 68 69 67
51 47 54 40 45 37 42 38 42 46 43 39 36 37 34 35 34 32 32 33 33 34 34 39 42 44 45 46 49 51 52 56 56 58 59 60 61 64 70 71 69 69 68 68 69 67 71 70 69
54 58 41 40 28 30 40 31 31 31 31 32 31 31 32 34 33 32 32 32 33 33 36 40 42 42 43 45 47 48 49 51 51 51 53 54 57 59 59 68 70 67 66 67 67 67 68 67 67
52 47 45 45 42 31 31 29 34 31 31 30 31 31 31 32 31 31 31 32 33 34 34 38 43 42 41 43 43 44 46 47 47 47 48 51 55 54 55 61 66 66 66 64 64 64 65 65 64
54 48 47 33 36 34 34 28 37 36 36 34 31 31 31 32 31 31 31 32 32 32 34 37 37 40 41 43 43 43 44 43 43 43 45 48 50 51 50 52 52 59 64 65 63 62 63 64 65
MSLP
1012.20 1011.15 1009.93 1008.89 1007.49 1004.77 1001.93 1000.15 1000.00 1000.82 1001.27 1002.11 1002.61 1002.64 1002.45 1002.19 1001.71 1001.39 1001.81 1003.11 1003.55 1003.56 1004.74 1006.06 1006.71 1006.97 1007.28 1007.72 1007.98 1008.28 1008.60 1008.89 1009.49 1009.79 1010.19 1010.61 1010.84 1011.11 1011.30 1011.58 1011.85 1012.10 1012.28 1012.45 1012.69 1012.81 1012.95 1013.13 1013.34
1010.76 1010.25 1009.55 1007.66 1005.95 1002.74 1000.57 999.73 1000.40 1001.09 1002.01 1003.05 1002.84 1002.63 1002.31 1001.83 1002.40 1002.30 1002.52 1003.37 1003.95 1003.78 1004.61 1005.76 1006.79 1007.06 1007.31 1007.68 1008.13 1008.38 1008.59 1009.07 1009.53 1009.95 1010.22 1010.68 1011.07 1011.29 1011.51 1011.81 1012.05 1012.27 1012.49 1012.55 1012.77 1012.90 1013.03 1013.31 1013.53
1011.59 1010.24 1008.70 1006.37 1004.49 1002.39 1000.79 1000.66 1001.49 1002.33 1003.26 1003.25 1002.85 1002.92 1002.65 1002.59 1003.02 1003.51 1004.11 1004.08 1004.23 1003.81 1004.61 1005.69 1007.05 1007.23 1007.41 1007.83 1008.27 1008.54 1008.73 1009.15 1009.63 1010.05 1010.36 1010.67 1011.11 1011.44 1011.67 1011.95 1012.19 1012.38 1012.58 1012.79 1012.89 1012.97 1013.26 1013.50 1013.75
1010.27 1009.27 1008.32 1006.13 1003.52 1002.16 1001.84 1001.31 1002.13 1002.59 1002.66 1003.02 1003.37 1003.29 1003.01 1003.47 1004.06 1004.40 1004.63 1004.53 1004.47 1004.08 1004.71 1006.40 1007.47 1007.57 1007.74 1008.01 1008.45 1008.79 1008.94 1009.29 1009.72 1010.09 1010.47 1010.83 1011.17 1011.49 1011.81 1012.13 1012.35 1012.56 1012.77 1012.94 1013.02 1013.31 1013.49 1013.78 1013.93
1010.01 1008.21 1006.29 1004.56 1003.20 1002.49 1002.03 1002.30 1002.83 1002.53 1002.63 1002.90 1003.54 1003.53 1003.33 1003.49 1004.54 1005.13 1005.15 1005.05 1004.97 1004.70 1005.11 1006.65 1007.47 1007.98 1008.02 1008.19 1008.55 1008.88 1009.09 1009.53 1009.80 1010.16 1010.53 1010.90 1011.32 1011.62 1011.86 1012.27 1012.49 1012.63 1012.83 1013.09 1013.21 1013.49 1013.73 1014.04 1014.22
1008.88 1007.64 1005.74 1003.73 1002.37 1001.74 1001.89 1003.31 1003.59 1003.34 1003.41 1003.46 1003.62 1003.49 1003.49 1003.57 1004.79 1005.41 1005.42 1005.67 1005.45 1005.35 1005.69 1006.35 1008.11 1008.55 1008.63 1008.62 1008.80 1008.94 1009.17 1009.62 1009.99 1010.19 1010.51 1010.88 1011.27 1011.73 1012.03 1012.36 1012.65 1012.78 1012.92 1013.25 1013.53 1013.64 1013.93 1014.21 1014.39
1008.85 1007.07 1005.44 1004.32 1003.35 1002.64 1002.82 1003.17 1003.86 1004.17 1004.38 1004.18 1004.25 1004.36 1004.16 1003.99 1005.62 1006.06 1005.57 1005.89 1006.20 1006.04 1006.10 1006.38 1007.64 1008.61 1009.03 1009.01 1009.11 1009.13 1009.31 1009.62 1010.07 1010.29 1010.55 1010.97 1011.24 1011.67 1012.22 1012.47 1012.75 1012.96 1013.06 1013.33 1013.70 1013.77 1014.11 1014.31 1014.56
1009.29 1007.80 1006.23 1005.01 1003.84 1003.18 1003.51 1004.26 1004.99 1005.20 1005.03 1005.48 1005.40 1004.53 1004.10 1004.91 1006.29 1006.50 1006.51 1005.93 1006.09 1006.44 1006.49 1006.62 1007.13 1007.80 1008.46 1008.89 1009.33 1009.47 1009.60 1009.83 1010.15 1010.39 1010.69 1011.13 1011.43 1011.69 1012.20 1012.58 1012.85 1013.08 1013.22 1013.49 1013.71 1013.99 1014.29 1014.46 1014.72
1009.54 1008.27 1006.15 1005.04 1004.42 1004.08 1004.66 1005.49 1006.00 1006.53 1006.51 1006.25 1005.84 1005.62 1005.70 1005.61 1006.67 1006.78 1006.54 1006.23 1005.81 1006.07 1006.66 1006.75 1006.87 1007.16 1007.61 1008.11 1008.99 1009.63 1009.81 1010.07 1010.34 1010.51 1010.73 1011.12 1011.07 1011.49 1011.99 1012.22 1012.66 1013.10 1013.35 1013.64 1013.85 1014.18 1014.39 1014.74 1014.98
1009.41 1007.68 1006.44 1005.97 1006.30 1006.56 1007.03 1007.52 1007.37 1007.16 1006.73 1006.29 1006.08 1005.89 1006.11 1006.69 1007.27 1007.07 1006.59 1006.07 1006.08 1005.84 1005.86 1006.76 1006.96 1007.04 1007.25 1007.33 1008.01 1009.07 1009.31 1009.66 1009.95 1010.07 1010.37 1010.51 1010.43 1010.71 1011.02 1011.69 1012.61 1013.15 1013.45 1013.71 1013.93 1014.22 1014.63 1014.76 1014.20
1009.27 1008.33 1007.75 1007.76 1007.83 1008.06 1008.23 1008.10 1008.19 1007.55 1006.90 1007.05 1006.68 1006.69 1007.12 1007.20 1007.31 1007.09 1006.58 1006.10 1005.83 1005.76 1005.32 1005.95 1006.75 1007.46 1007.91 1007.13 1007.22 1007.80 1008.29 1008.87 1009.27 1009.55 1009.69 1010.02 1009.95 1010.41 1010.73 1011.53 1012.29 1012.76 1013.50 1013.37 1013.83 1014.16 1014.07 1013.85 1013.40
1009.97 1009.09 1008.70 1008.65 1008.82 1008.94 1008.85 1008.89 1008.39 1008.28 1007.54 1007.49 1007.29 1007.16 1007.05 1006.98 1006.83 1006.61 1006.35 1006.06 1005.76 1005.61 1005.40 1005.13 1006.24 1007.33 1008.06 1007.78 1007.51 1007.49 1007.26 1007.81 1008.25 1008.77 1009.35 1009.51 1009.75 1010.24 1010.69 1010.85 1011.19 1011.91 1012.54 1012.46 1012.98 1013.15 1013.17 1013.22 1013.41
1009.69 1009.24 1009.19 1009.25 1009.13 1009.03 1008.97 1008.76 1008.32 1007.91 1007.62 1007.29 1006.98 1007.00 1006.95 1006.69 1006.57 1006.40 1006.28 1006.07 1005.85 1005.55 1005.37 1005.21 1005.26 1006.34 1007.31 1007.78 1006.76 1007.03 1006.99 1007.51 1007.43 1008.21 1009.14 1009.31 1009.47 1009.91 1010.29 1010.55 1010.84 1011.52 1011.90 1011.99 1012.44 1012.63 1013.00 1013.29 1013.45
1009.75 1009.86 1009.47 1008.97 1008.55 1008.34 1008.24 1007.99 1008.05 1007.51 1007.03 1006.58 1006.66 1006.83 1006.70 1006.56 1006.41 1006.40 1006.41 1006.24 1006.02 1005.61 1005.29 1005.10 1005.08 1005.30 1006.27 1007.00 1006.71 1006.51 1006.58 1007.11 1007.69 1008.31 1008.81 1009.24 1009.39 1009.64 1009.90 1010.31 1010.59 1011.17 1011.54 1011.79 1012.20 1012.72 1013.01 1012.99 1013.11
1010.33 1009.56 1008.47 1007.45 1007.81 1008.28 1008.25 1007.95 1006.65 1006.45 1006.51 1006.37 1006.45 1006.61 1006.57 1006.33 1006.29 1006.14 1006.16 1006.00 1005.90 1005.56 1005.26 1004.93 1004.81 1004.71 1005.34 1006.14 1006.49 1006.15 1006.35 1006.90 1007.74 1008.18 1008.60 1008.88 1009.27 1009.37 1009.22 1009.93 1010.37 1010.95 1011.09 1011.67 1012.08 1012.56 1012.70 1012.96 1013.03
1009.66 1008.64 1007.34 1006.40 1006.94 1007.65 1008.06 1006.39 1006.52 1006.25 1006.23 1006.17 1006.17 1006.25 1006.20 1006.11 1005.94 1005.74 1005.51 1005.37 1005.35 1005.07 1004.86 1004.69 1004.31 1004.10 1004.39 1005.26 1005.83 1005.61 1005.89 1006.73 1007.20 1007.64 1008.19 1008.65 1008.88 1009.07 1009.29 1009.20 1009.86 1010.35 1011.11 1011.41 1011.97 1012.34 1012.50 1012.82 1012.98
1007.88 1007.07 1006.55 1006.52 1006.39 1007.16 1007.53 1005.53 1005.87 1006.12 1006.08 1005.94 1006.00 1006.04 1005.92 1005.68 1005.56 1005.43 1004.96 1004.68 1004.61 1004.47 1004.23 1004.16 1003.98 1003.76 1003.66 1004.43 1005.21 1005.17 1005.25 1005.99 1006.32 1006.61 1007.38 1008.17 1008.79 1009.04 1009.35 1008.92 1009.61 1009.73 1010.59 1011.33 1011.77 1011.95 1012.18 1012.63 1012.86
1007.96 1007.57 1007.26 1006.78 1006.62 1006.86 1006.69 1005.86 1005.37 1005.59 1005.62 1006.14 1006.43 1006.99 1007.27 1007.04 1006.77 1006.44 1005.53 1004.67 1004.39 1004.13 1003.99 1003.73 1003.50 1003.07 1003.17 1003.41 1004.21 1004.68 1004.54 1005.10 1005.55 1005.37 1005.75 1007.15 1008.19 1008.83 1009.23 1009.33 1009.79 1010.05 1010.50 1011.19 1011.44 1011.70 1012.01 1012.26 1012.66
1009.67 1008.76 1007.78 1007.11 1007.02 1007.37 1006.65 1005.78 1005.11 1004.99 1006.33 1007.97 1008.64 1009.12 1009.39 1009.60 1009.54 1008.99 1007.65 1006.26 1004.80 1004.45 1004.21 1003.76 1003.49 1002.67 1002.68 1002.71 1003.37 1003.54 1003.37 1003.92 1004.38 1004.28 1004.55 1006.11 1007.03 1008.08 1008.79 1009.30 1009.57 1009.94 1010.15 1010.73 1011.25 1011.61 1011.76 1011.97 1012.39
1009.91 1009.00 1007.85 1007.09 1006.97 1007.03 1006.24 1005.38 1004.71 1005.21 1007.23 1009.01 1010.00 1010.50 1011.05 1011.75 1011.59 1010.93 1010.05 1008.59 1006.68 1005.95 1004.92 1004.10 1003.73 1003.62 1003.07 1002.10 1002.37 1002.71 1002.67 1002.78 1002.97 1003.38 1003.65 1004.57 1006.09 1006.95 1007.85 1008.55 1009.21 1009.73 1010.10 1010.47 1010.87 1011.17 1011.59 1011.77 1012.07
1009.25 1008.75 1008.06 1007.66 1007.27 1006.69 1005.53 1004.65 1004.28 1005.25 1007.37 1009.86 1011.22 1012.14 1012.69 1013.14 1012.95 1012.62 1011.79 1010.93 1009.63 1008.37 1007.33 1005.79 1004.98 1003.97 1003.21 1002.07 1000.81 1001.65 1001.58 1001.96 1001.83 1002.17 1002.70 1003.61 1005.13 1006.48 1007.13 1007.78 1008.36 1009.17 1009.75 1010.14 1010.36 1010.76 1011.01 1011.35 1011.81
1008.93 1008.62 1008.78 1008.23 1007.60 1006.10 1006.29 1004.92 1004.67 1006.93 1009.01 1011.40 1012.25 1013.18 1013.98 1014.01 1013.96 1013.86 1013.21 1012.32 1011.39 1010.16 1009.30 1008.00 1006.61 1004.88 1003.27 1002.76 1001.36 999.86 1000.21 1000.05 1000.33 1001.09 1002.03 1002.78 1003.81 1005.37 1006.13 1007.08 1007.65 1008.30 1009.15 1009.61 1009.99 1010.31 1010.57 1010.91 1011.52
1009.29 1009.29 1009.19 1008.52 1007.61 1006.73 1005.45 1005.11 1005.09 1008.51 1010.98 1012.45 1013.74 1014.73 1015.17 1015.04 1014.76 1014.42 1013.94 1013.33 1012.32 1011.16 1010.23 1009.12 1007.59 1005.64 1004.65 1003.36 1001.22 998.99 1000.07 999.48 999.98 1000.59 1001.27 1002.05 1003.15 1004.01 1005.57 1006.20 1007.11 1007.59 1008.20 1008.86 1009.41 1009.86 1010.02 1010.24 1010.67
1009.81 1009.43 1008.31 1007.21 1006.69 1005.99 1004.61 1005.79 1007.35 1011.21 1013.46 1014.53 1015.53 1015.97 1016.14 1015.95 1015.70 1015.01 1014.62 1013.87 1012.83 1011.58 1010.50 1009.22 1007.50 1005.87 1004.73 1002.93 1000.18 998.32 999.55 999.26 999.69 1000.11 1000.73 1001.97 1003.34 1003.50 1004.56 1005.35 1006.24 1006.89 1007.33 1008.02 1008.69 1009.34 1009.70 1009.89 1010.20
1009.35 1008.74 1007.56 1006.33 1006.54 1005.38 1005.21 1006.34 1010.47 1012.45 1014.28 1015.75 1016.35 1016.95 1016.87 1016.56 1016.36 1015.89 1015.11 1014.18 1013.19 1012.12 1010.67 1009.16 1007.70 1006.22 1004.29 1003.50 1001.55 1000.69 1000.05 999.92 999.93 1000.79 1001.31 1001.97 1003.67 1003.82 1004.18 1004.61 1005.38 1006.31 1006.30 1007.21 1007.97 1008.63 1009.04 1009.35 1009.74
1008.93 1008.94 1008.51 1007.75 1006.97 1006.50 1007.41 1008.26 1011.89 1013.49 1015.22 1016.61 1017.24 1017.64 1017.57 1017.17 1017.15 1016.71 1015.84 1014.78 1014.09 1012.84 1011.23 1009.75 1007.91 1006.68 1004.15 1004.33 1002.93 1002.11 1001.84 1001.61 1001.82 1001.71 1000.06 1001.57 1003.65 1003.46 1004.69 1005.13 1004.89 1005.55 1005.99 1006.59 1007.29 1008.01 1008.60 1009.01 1009.39
1008.74 1008.84 1009.17 1009.35 1008.75 1008.29 1008.33 1011.05 1013.00 1014.53 1016.19 1017.42 1018.05 1018.35 1018.49 1018.26 1017.88 1017.33 1016.11 1015.60 1014.73 1013.12 1010.89 1010.15 1008.61 1007.05 1005.64 1005.23 1004.48 1003.70 1003.46 1003.17 1002.79 1000.65 1003.80 1004.45 1004.64 1004.21 1004.53 1004.53 1005.12 1005.41 1005.72 1006.07 1006.64 1007.41 1007.60 1008.34 1008.71
1009.33 1009.15 1009.63 1010.18 1009.53 1008.55 1008.92 1012.08 1014.27 1016.06 1017.40 1018.36 1018.79 1019.17 1019.30 1019.18 1018.61 1017.77 1016.88 1016.31 1015.09 1012.29 1011.95 1010.26 1009.40 1007.25 1006.61 1006.24 1006.09 1006.01 1005.35 1004.87 1004.35 1003.57 1005.16 1005.69 1005.75 1005.99 1005.19 1004.43 1004.72 1005.18 1005.36 1005.78 1005.91 1006.55 1006.97 1007.02 1007.78
1008.84 1009.58 1010.42 1010.77 1010.43 1010.45 1010.91 1014.01 1016.59 1017.80 1018.83 1019.40 1019.89 1020.15 1020.07 1019.78 1019.39 1018.48 1017.21 1017.01 1015.77 1013.99 1011.51 1010.85 1009.17 1007.83 1007.51 1008.55 1008.74 1008.10 1007.87 1007.15 1006.01 1006.18 1005.98 1007.68 1007.07 1006.93 1006.17 1005.46 1004.80 1004.92 1005.09 1005.37 1005.71 1006.40 1006.53 1006.85 1006.97
1009.84 1010.43 1011.40 1012.05 1011.08 1011.90 1012.47 1015.43 1017.51 1018.52 1019.51 1020.26 1020.66 1020.75 1020.62 1020.31 1019.91 1019.29 1018.55 1017.08 1015.45 1014.13 1012.68 1011.05 1009.98 1009.23 1008.99 1008.92 1008.31 1007.90 1008.76 1007.06 1006.33 1009.67 1008.73 1008.79 1008.49 1008.14 1007.68 1006.62 1006.28 1005.89 1005.45 1005.08 1005.78 1006.39 1006.36 1006.51 1006.62
Wind_Speed
12 13 8 7 9 8 14 7 6 3 4 7 6 7 12 11 9 7 11 13 7 5 14 16 12 14 13 13 12 11 11 13 13 14 13 12 12 12 11 10 10 10 10 11 11 10 10 9 8
11 5 7 8 9 13 12 10 6 3 9 7 8 9 10 4 3 8 14 20 12 7 12 16 13 13 14 13 12 11 11 12 13 14 14 13 13 12 11 10 9 9 10 11 9 9 10 8 8
13 8 10 9 14 14 13 11 8 6 2 5 4 4 5 8 12 12 18 17 7 7 12 14 12 12 13 12 12 11 12 12 13 14 15 15 14 13 12 11 10 9 10 10 10 9 9 9 9
7 7 8 11 19 15 10 7 3 7 6 5 5 10 6 4 7 14 18 15 6 4 10 19 11 9 11 12 11 11 11 12 12 13 14 14 14 13 12 11 10 10 9 9 8 7 9 9 9
9 9 12 16 19 17 13 8 16 16 14 9 8 13 11 6 8 14 16 15 7 3 7 13 11 8 10 12 12 11 11 11 12 13 13 13 13 13 11 11 9 9 8 7 8 8 9 8 9
10 6 13 15 17 13 5 7 15 15 13 11 10 13 7 4 13 13 13 14 8 4 5 11 8 5 7 9 10 10 12 12 11 12 13 13 13 11 11 11 9 9 9 7 9 10 10 9 8
12 12 16 19 19 16 14 7 11 13 13 13 13 10 9 6 17 17 16 9 9 6 5 4 11 11 4 5 7 9 11 11 11 11 11 11 11 11 10 10 9 8 8 9 9 9 9 9 8
7 11 18 17 16 14 10 9 13 13 15 13 12 8 10 15 15 16 15 17 4 4 5 8 11 13 12 11 5 7 8 10 10 11 10 8 9 11 10 9 9 9 8 9 9 9 9 9 9
7 8 13 17 16 15 15 14 9 16 16 15 15 11 13 18 18 18 16 13 13 1 7 9 10 12 13 13 11 8 8 9 8 9 9 10 11 12 13 11 13 9 9 9 9 9 9 8 7
9 11 16 15 10 14 14 13 16 19 21 21 19 17 15 18 19 20 19 14 13 15 6 10 10 10 11 11 12 13 11 11 11 12 13 11 13 12 12 12 11 9 9 9 10 10 9 10 9
8 14 15 17 13 14 16 20 19 21 23 21 23 23 22 21 18 19 19 17 15 14 14 10 11 7 9 10 8 8 9 9 10 14 12 12 10 8 9 7 8 9 9 8 9 8 8 12 4
9 13 12 12 13 16 18 20 22 23 25 24 24 24 24 23 20 17 18 18 17 16 15 10 13 10 9 10 10 10 10 10 9 12 13 10 8 9 9 8 9 8 8 9 10 8 10 9 6
16 13 8 11 14 17 19 20 23 23 23 22 21 19 20 20 22 19 19 19 19 18 16 14 12 14 15 15 11 11 10 10 11 12 11 11 10 9 10 9 8 7 8 9 7 6 5 5 2
10 12 16 17 19 19 19 17 17 20 22 21 19 20 21 22 22 19 18 19 21 20 18 13 14 14 16 15 16 10 9 11 8 6 9 13 9 9 9 9 10 10 7 6 6 5 6 8 8
10 16 15 14 4 10 14 17 15 13 19 20 18 19 20 24 24 24 22 22 21 21 21 17 14 12 15 17 16 12 11 10 10 9 8 13 12 12 12 8 8 7 8 7 5 4 7 5 5
15 13 10 3 5 7 9 19 13 16 16 19 21 20 22 23 24 25 25 23 21 21 22 20 16 14 17 15 14 12 12 11 11 10 8 11 10 12 13 11 11 10 6 7 6 8 9 5 4
12 9 15 12 6 7 10 26 19 17 15 18 19 19 20 21 22 21 24 24 22 22 20 19 18 17 15 17 14 14 13 13 13 13 12 11 11 11 11 9 9 9 10 8 8 9 9 7 5
13 16 15 14 12 16 18 22 19 17 13 13 16 20 22 25 28 28 28 23 22 22 20 20 17 16 15 15 14 14 12 12 13 13 14 17 11 12 10 8 9 10 8 7 9 9 8 7 6
12 16 18 15 13 11 17 22 20 18 14 13 17 18 20 22 26 28 28 27 25 20 22 22 21 15 12 11 13 14 13 13 13 14 16 19 14 14 13 9 10 9 10 12 9 8 10 8 7
14 17 19 15 5 14 19 22 21 2 8 10 15 18 19 22 23 24 25 28 22 24 19 18 17 17 19 15 13 14 13 13 13 13 14 16 18 16 15 12 11 11 10 11 12 11 8 7 7
15 16 18 18 18 18 20 18 14 7 7 17 17 19 19 20 20 21 22 22 24 20 22 20 22 20 22 24 14 14 14 13 13 14 12 14 18 15 15 15 12 12 10 9 11 11 13 9 8
15 11 13 18 15 14 16 15 16 6 12 18 20 20 19 21 19 19 20 20 20 19 19 21 23 22 22 26 21 21 18 16 12 12 13 13 18 18 16 14 13 12 10 10 13 11 12 10 8
10 11 16 20 19 18 20 12 7 9 16 22 21 20 21 19 21 20 20 20 19 16 15 16 20 20 19 20 27 18 21 14 13 12 16 15 15 18 19 15 14 13 10 12 12 12 14 11 9
12 14 20 20 13 13 17 5 6 8 14 17 18 20 21 19 19 19 19 20 17 16 13 13 18 10 12 14 18 18 21 17 12 14 12 11 11 12 17 17 14 14 12 12 11 12 14 11 11
9 13 9 8 7 15 6 9 8 12 14 14 16 18 20 19 18 19 21 19 18 18 15 14 14 10 11 11 11 10 16 18 12 3 7 10 7 8 10 14 15 12 13 12 12 12 12 13 11
11 10 7 8 11 19 23 5 6 12 14 15 16 15 20 21 18 19 19 17 18 16 16 14 12 10 13 11 13 12 13 2 3 7 10 6 6 7 10 11 8 12 12 11 11 9 9 11 10
3 9 6 11 19 15 6 5 3 15 16 17 17 19 19 21 19 19 20 17 17 14 16 14 11 10 13 14 13 14 12 11 6 15 11 5 7 7 9 12 12 7 9 10 12 9 12 11 13
11 6 6 4 6 10 4 5 6 15 16 15 15 17 17 20 20 18 18 17 16 16 14 13 12 16 16 15 12 11 13 14 13 13 11 11 9 10 11 5 10 8 8 9 11 10 11 12 10
7 5 4 10 10 7 9 5 6 10 12 14 14 14 16 17 17 17 18 17 15 16 16 16 18 19 18 16 12 12 11 11 11 15 16 11 11 11 10 9 5 7 7 7 6 6 8 10 10
5 6 10 5 8 7 6 5 4 8 11 12 13 13 14 16 16 15 16 16 19 20 19 20 18 20 18 17 18 21 16 20 21 12 13 13 13 12 12 12 15 11 4 3 8 9 9 12 13
Wind_Direction
261 232 251 254 246 228 269 256 23 250 240 47 26 322 325 306 298 338 7 42 350 243 145 163 159 159 154 152 149 150 155 153 151 150 154 156 156 157 156 155 162 165 160 163 168 179 175 160 146
285 246 237 270 257 257 247 216 174 339 42 323 279 268 244 265 341 342 352 356 337 232 156 174 165 162 157 155 151 148 146 150 152 155 156 157 160 160 159 157 167 163 162 166 170 176 164 149 144
262 255 266 239 238 259 282 57 33 34 51 334 290 30 348 326 18 353 358 345 333 212 161 168 162 164 160 155 150 149 142 145 155 159 160 160 163 165 163 162 169 165 167 169 171 175 143 140 138
225 205 242 253 262 266 267 302 175 252 229 169 305 294 335 63 2 8 357 357 336 195 169 130 152 169 160 157 154 150 140 143 155 159 162 162 165 167 163 160 165 166 166 170 166 149 132 139 142
237 262 257 251 257 271 284 306 292 289 288 284 319 295 306 324 38 4 359 356 339 221 165 150 147 174 168 160 160 155 143 149 155 158 156 160 165 166 157 159 163 159 163 158 156 134 134 141 147
256 251 265 263 267 268 211 291 293 295 300 288 263 284 294 353 43 358 5 2 348 271 210 137 152 182 178 163 164 157 148 152 157 153 153 161 162 160 157 159 164 165 161 162 143 142 139 149 150
256 280 272 285 290 294 296 292 286 308 306 302 355 299 293 355 31 352 345 18 346 300 208 188 175 189 190 168 168 159 155 156 161 153 155 164 156 151 161 161 166 169 160 147 153 143 147 149 151
296 284 275 273 281 284 311 323 325 305 319 339 297 283 308 29 1 339 335 329 19 292 238 225 175 187 196 191 172 166 159 160 165 160 157 151 151 156 162 162 168 168 163 156 153 150 153 150 154
259 259 264 278 299 334 349 339 323 323 298 293 290 293 304 335 329 320 315 315 323 211 262 225 208 193 198 198 180 178 169 169 166 165 156 160 193 180 168 192 148 167 163 158 154 156 149 146 147
253 272 281 322 337 313 328 298 298 298 295 292 295 292 305 325 309 308 303 302 311 302 215 238 221 217 208 207 179 198 190 196 197 192 180 197 205 183 184 164 148 158 159 159 156 152 151 186 175
274 259 307 316 317 317 289 289 298 295 286 293 301 307 300 292 293 289 295 293 290 296 299 197 225 163 232 224 203 188 199 201 200 200 188 203 201 176 194 154 166 174 177 179 174 162 195 207 169
271 280 293 298 298 295 287 293 287 285 288 291 287 289 291 288 283 280 283 290 293 291 286 269 211 189 219 224 202 211 200 194 200 201 197 200 208 173 192 184 184 182 179 188 194 186 209 206 177
261 283 304 292 285 278 288 285 288 287 286 283 288 290 292 288 286 285 287 287 288 283 283 279 221 203 208 225 210 211 189 213 206 185 203 205 193 191 184 195 177 175 183 190 193 197 207 225 185
323 301 289 280 276 275 278 293 300 287 283 280 273 284 290 288 289 290 287 286 285 284 279 279 279 208 213 216 240 201 204 187 212 202 191 203 199 196 183 194 184 180 193 186 189 177 195 219 205
285 286 285 264 313 296 294 278 292 337 312 303 291 287 287 292 291 289 287 282 277 274 276 272 269 240 201 217 228 221 211 185 194 191 210 203 188 205 215 183 181 187 194 193 184 189 207 221 228
252 263 256 93 261 323 292 290 308 310 307 299 288 285 286 283 282 285 284 281 279 273 271 271 270 270 205 204 224 221 202 199 195 187 187 208 188 205 222 178 197 173 179 197 186 200 204 217 221
180 276 317 311 280 302 262 297 314 320 308 303 301 300 301 301 297 292 288 285 276 270 268 266 259 256 242 204 213 227 210 194 205 194 185 195 200 189 211 205 201 172 176 190 205 206 211 202 216
320 307 305 300 321 298 297 293 308 311 322 341 349 349 339 336 336 334 320 298 285 280 275 277 266 254 259 197 203 224 202 204 208 203 190 184 190 193 193 201 183 202 177 179 217 196 201 214 206
298 289 291 296 312 296 286 292 295 300 42 15 354 342 338 333 332 327 324 316 309 283 273 266 272 272 269 214 205 212 208 199 205 207 194 178 182 190 192 198 195 188 193 187 194 192 217 207 204
286 287 286 302 268 311 301 292 284 319 71 34 358 344 343 336 331 329 327 322 317 333 312 303 290 286 280 257 211 214 207 203 199 205 191 179 181 186 193 187 191 193 202 188 187 194 198 213 205
277 288 297 307 313 287 272 294 146 96 46 14 4 350 346 332 334 331 328 325 319 323 321 318 307 288 276 278 206 201 208 210 199 199 193 187 177 184 194 189 182 187 197 197 197 192 198 200 207
282 296 303 295 303 300 316 283 293 38 26 356 355 354 344 335 336 335 336 326 320 317 317 307 296 279 278 288 285 189 218 203 191 195 195 185 182 182 190 188 184 180 194 198 205 196 196 194 188
282 321 292 289 286 284 279 250 89 37 355 352 354 350 342 338 336 338 339 333 320 316 313 301 290 277 289 285 282 192 214 204 189 191 191 194 186 183 189 191 185 185 189 201 207 201 203 203 194
287 283 279 259 260 272 278 260 61 19 347 345 346 349 345 345 337 343 345 339 325 318 318 311 298 311 314 314 281 200 209 208 195 189 188 186 178 197 185 189 191 190 190 197 203 200 208 204 206
232 276 298 281 238 262 255 314 49 23 16 359 349 356 348 352 349 347 348 342 328 324 328 318 317 328 356 341 21 9 244 216 206 94 195 155 166 195 213 194 192 199 192 193 196 200 207 207 210
301 280 292 301 301 305 309 312 92 31 26 8 355 7 355 356 353 349 349 346 330 324 329 328 335 335 28 359 18 29 21 27 201 132 18 89 171 165 196 214 233 195 191 197 196 198 204 207 217
96 253 354 281 278 269 248 119 165 12 8 3 359 359 359 357 351 351 352 346 333 332 340 335 1 7 37 27 25 31 23 24 50 37 54 7 10 5 200 187 205 207 205 199 194 205 207 213 215
239 307 287 224 282 296 312 113 6 353 357 357 1 356 357 356 352 355 354 342 343 343 333 360 16 33 38 43 30 37 25 35 39 28 44 11 13 3 347 220 199 198 199 206 195 203 211 200 222
191 252 288 288 269 280 286 100 4 4 8 360 358 355 354 353 353 357 352 345 346 352 354 4 21 36 44 59 50 55 53 42 31 32 35 2 11 7 360 326 196 207 205 205 200 220 202 208 209
282 20 321 285 286 315 315 92 23 25 17 13 0 356 355 353 353 357 356 351 359 3 359 8 11 31 30 35 34 37 31 42 46 34 41 22 20 19 14 14 27 5 319 205 202 218 221 221 221